Time,TemperatureF,DewpointF,PressureIn,WindDirection,WindDirectionDegrees,WindSpeedMPH,WindSpeedGustMPH,Humidity,HourlyPrecipIn,Conditions,Clouds,dailyrainin,SolarRadiationWatts/m^2,SoftwareType,DateUTC
2013-07-15 00:01:00,73.9,72.5,30.09,East,101,9.0,12.0,95,0.00,,,0.09,0.0,meteohub,2013-07-15 04:01:00,
2013-07-15 00:06:00,73.9,72.5,30.09,ENE,69,3.0,11.0,95,0.00,,,0.00,0.0,meteohub,2013-07-15 04:06:00,
2013-07-15 00:11:00,73.8,72.3,30.09,ENE,65,2.0,11.0,95,0.00,,,0.00,0.0,meteohub,2013-07-15 04:11:00,
2013-07-15 00:16:00,73.8,72.0,30.09,ENE,63,5.0,10.0,94,0.00,,,0.00,0.0,meteohub,2013-07-15 04:16:00,
2013-07-15 00:21:00,73.6,71.8,30.09,East,86,7.0,10.0,94,0.00,,,0.00,0.0,meteohub,2013-07-15 04:21:00,
2013-07-15 00:26:00,73.6,71.8,30.09,East,92,1.0,10.0,94,0.00,,,0.00,0.0,meteohub,2013-07-15 04:26:00,
2013-07-15 00:31:00,73.6,71.8,30.09,East,88,1.0,10.0,94,0.00,,,0.00,0.0,meteohub,2013-07-15 04:31:00,
2013-07-15 00:37:00,73.6,71.8,30.09,East,82,3.0,7.0,94,0.00,,,0.00,0.0,meteohub,2013-07-15 04:37:00,
2013-07-15 00:42:00,73.6,71.8,30.09,East,81,2.0,6.0,94,0.00,,,0.00,0.0,meteohub,2013-07-15 04:42:00,
2013-07-15 00:47:00,73.6,71.8,30.09,ENE,69,2.0,5.0,94,0.01,,,0.01,0.0,meteohub,2013-07-15 04:47:00,
2013-07-15 00:52:00,73.6,71.8,30.09,ENE,62,2.0,5.0,94,0.01,,,0.01,0.0,meteohub,2013-07-15 04:52:00,
2013-07-15 00:57:00,73.6,71.8,30.09,ENE,62,2.0,5.0,94,0.01,,,0.01,0.0,meteohub,2013-07-15 04:57:00,
2013-07-15 01:02:00,73.6,72.1,30.08,ENE,61,1.0,5.0,95,0.01,,,0.01,0.0,meteohub,2013-07-15 05:02:00,
2013-07-15 01:07:00,73.4,72.0,30.08,ENE,61,1.0,5.0,95,0.01,,,0.01,0.0,meteohub,2013-07-15 05:07:00,
2013-07-15 01:12:00,73.4,72.0,30.08,ENE,62,2.0,5.0,95,0.02,,,0.02,0.0,meteohub,2013-07-15 05:12:00,
2013-07-15 01:17:00,73.2,71.8,30.08,ENE,59,2.0,5.0,95,0.02,,,0.02,0.0,meteohub,2013-07-15 05:17:00,
2013-07-15 01:22:00,73.4,72.0,30.07,ENE,59,2.0,5.0,95,0.02,,,0.02,0.0,meteohub,2013-07-15 05:22:00,
2013-07-15 01:27:00,73.4,72.0,30.07,ENE,59,2.0,5.0,95,0.02,,,0.02,0.0,meteohub,2013-07-15 05:27:00,
2013-07-15 01:32:00,73.6,72.1,30.07,ENE,59,2.0,4.0,95,0.02,,,0.02,0.0,meteohub,2013-07-15 05:32:00,
2013-07-15 01:37:00,73.6,72.1,30.06,ENE,59,3.0,4.0,95,0.03,,,0.03,0.0,meteohub,2013-07-15 05:37:00,
2013-07-15 01:42:00,73.6,72.1,30.06,NE,36,2.0,4.0,95,0.02,,,0.03,0.0,meteohub,2013-07-15 05:42:00,
2013-07-15 01:47:00,73.6,72.3,30.06,NE,36,1.0,5.0,96,0.02,,,0.03,0.0,meteohub,2013-07-15 05:47:00,
2013-07-15 01:52:00,73.6,72.1,30.06,NE,36,0.0,5.0,95,0.02,,,0.03,0.0,meteohub,2013-07-15 05:52:00,
2013-07-15 01:57:00,73.8,72.5,30.07,NE,36,2.0,4.0,96,0.02,,,0.03,0.0,meteohub,2013-07-15 05:57:00,
2013-07-15 02:02:00,73.8,72.5,30.07,NE,36,1.0,3.0,96,0.02,,,0.03,0.0,meteohub,2013-07-15 06:02:00,
2013-07-15 02:07:00,73.6,72.3,30.07,NE,36,1.0,3.0,96,0.02,,,0.03,0.0,meteohub,2013-07-15 06:07:00,
2013-07-15 02:12:00,73.6,72.3,30.07,NE,38,3.0,4.0,96,0.01,,,0.03,0.0,meteohub,2013-07-15 06:12:00,
2013-07-15 02:17:00,73.6,72.3,30.07,NE,38,2.0,5.0,96,0.01,,,0.03,0.0,meteohub,2013-07-15 06:17:00,
2013-07-15 02:22:00,73.6,72.3,30.07,NE,38,2.0,5.0,96,0.01,,,0.03,0.0,meteohub,2013-07-15 06:22:00,
2013-07-15 02:27:00,73.6,72.3,30.07,NE,38,2.0,5.0,96,0.01,,,0.03,0.0,meteohub,2013-07-15 06:27:00,
2013-07-15 02:32:00,73.8,72.5,30.06,NE,38,3.0,4.0,96,0.01,,,0.03,0.0,meteohub,2013-07-15 06:32:00,
2013-07-15 02:37:00,73.8,72.5,30.06,NE,38,2.0,4.0,96,0.00,,,0.03,0.0,meteohub,2013-07-15 06:37:00,
2013-07-15 02:42:00,73.8,72.5,30.06,NE,38,3.0,4.0,96,0.00,,,0.03,0.0,meteohub,2013-07-15 06:42:00,
2013-07-15 02:47:00,73.8,72.5,30.06,NE,38,0.0,4.0,96,0.00,,,0.03,0.0,meteohub,2013-07-15 06:47:00,
2013-07-15 02:52:00,73.8,72.5,30.06,NE,38,0.0,4.0,96,0.00,,,0.03,0.0,meteohub,2013-07-15 06:52:00,
2013-07-15 02:57:00,73.9,72.7,30.06,NE,38,0.0,4.0,96,0.00,,,0.03,0.0,meteohub,2013-07-15 06:57:00,
2013-07-15 03:02:00,73.9,72.7,30.06,NE,38,0.0,1.0,96,0.00,,,0.03,0.0,meteohub,2013-07-15 07:02:00,
2013-07-15 03:07:00,73.9,72.7,30.06,NE,38,0.0,0.0,96,0.00,,,0.03,0.0,meteohub,2013-07-15 07:07:00,
2013-07-15 03:12:00,74.1,72.9,30.06,South,180,5.0,0.0,96,0.00,,,0.03,0.0,meteohub,2013-07-15 07:12:00,
2013-07-15 03:17:00,74.1,72.9,30.06,South,185,0.0,5.0,96,0.00,,,0.03,0.0,meteohub,2013-07-15 07:17:00,
2013-07-15 03:22:00,74.1,72.9,30.06,South,185,0.0,5.0,96,0.00,,,0.03,0.0,meteohub,2013-07-15 07:22:00,
2013-07-15 03:27:00,74.1,72.9,30.06,South,184,3.0,5.0,96,0.00,,,0.03,0.0,meteohub,2013-07-15 07:27:00,
2013-07-15 03:32:00,74.1,72.9,30.06,South,184,0.0,4.0,96,0.00,,,0.03,0.0,meteohub,2013-07-15 07:32:00,
2013-07-15 03:37:00,74.1,72.9,30.05,South,184,0.0,4.0,96,0.00,,,0.03,0.0,meteohub,2013-07-15 07:37:00,
2013-07-15 03:42:00,74.1,72.9,30.05,South,184,0.0,4.0,96,0.00,,,0.03,0.0,meteohub,2013-07-15 07:42:00,
2013-07-15 03:47:00,74.1,72.9,30.05,South,184,0.0,0.0,96,0.00,,,0.03,0.0,meteohub,2013-07-15 07:47:00,
2013-07-15 03:52:00,73.9,72.7,30.05,South,184,0.0,0.0,96,0.00,,,0.03,0.0,meteohub,2013-07-15 07:52:00,
2013-07-15 03:57:00,73.9,72.7,30.04,South,184,0.0,0.0,96,0.00,,,0.03,0.0,meteohub,2013-07-15 07:57:00,
2013-07-15 04:02:00,73.9,72.7,30.04,South,184,0.0,0.0,96,0.00,,,0.03,0.0,meteohub,2013-07-15 08:02:00,
2013-07-15 04:07:00,73.9,72.7,30.04,South,184,0.0,0.0,96,0.00,,,0.03,0.0,meteohub,2013-07-15 08:07:00,
2013-07-15 04:12:00,73.8,72.9,30.04,South,184,1.0,0.0,97,0.00,,,0.03,0.0,meteohub,2013-07-15 08:12:00,
2013-07-15 04:17:00,73.8,72.9,30.04,South,184,1.0,2.0,97,0.00,,,0.03,0.0,meteohub,2013-07-15 08:17:00,
2013-07-15 04:22:00,73.8,72.9,30.04,South,184,0.0,2.0,97,0.00,,,0.03,0.0,meteohub,2013-07-15 08:22:00,
2013-07-15 04:27:00,73.8,72.9,30.04,South,184,0.0,2.0,97,0.00,,,0.03,0.0,meteohub,2013-07-15 08:27:00,
2013-07-15 04:32:00,73.8,72.9,30.04,South,184,0.0,2.0,97,0.00,,,0.03,0.0,meteohub,2013-07-15 08:32:00,
2013-07-15 04:37:00,73.9,73.0,30.04,South,184,0.0,0.0,97,0.00,,,0.03,0.0,meteohub,2013-07-15 08:37:00,
2013-07-15 04:42:00,73.8,72.9,30.04,South,184,1.0,0.0,97,0.00,,,0.03,0.0,meteohub,2013-07-15 08:42:00,
2013-07-15 04:47:00,73.9,73.0,30.04,South,184,1.0,1.0,97,0.00,,,0.03,0.0,meteohub,2013-07-15 08:47:00,
2013-07-15 04:52:00,73.9,73.0,30.04,South,185,0.0,2.0,97,0.00,,,0.03,0.0,meteohub,2013-07-15 08:52:00,
2013-07-15 04:57:00,73.9,73.0,30.04,ESE,121,1.0,2.0,97,0.00,,,0.03,0.0,meteohub,2013-07-15 08:57:00,
2013-07-15 05:02:00,73.9,73.0,30.04,East,90,5.0,5.0,97,0.00,,,0.03,0.0,meteohub,2013-07-15 09:02:00,
2013-07-15 05:07:00,73.9,73.0,30.04,East,82,6.0,6.0,97,0.00,,,0.03,0.0,meteohub,2013-07-15 09:07:00,
2013-07-15 05:12:00,73.9,73.0,30.04,ENE,76,2.0,6.0,97,0.00,,,0.03,0.0,meteohub,2013-07-15 09:12:00,
2013-07-15 05:17:00,73.4,72.5,30.04,ENE,58,3.0,7.0,97,0.00,,,0.03,0.0,meteohub,2013-07-15 09:17:00,
2013-07-15 05:22:00,73.0,72.1,30.04,ENE,60,4.0,8.0,97,0.00,,,0.03,0.0,meteohub,2013-07-15 09:22:00,
2013-07-15 05:27:00,72.9,71.6,30.04,NNE,22,8.0,8.0,96,0.00,,,0.03,0.0,meteohub,2013-07-15 09:27:00,
2013-07-15 05:32:00,72.9,71.6,30.04,NNE,32,9.0,10.0,96,0.00,,,0.03,0.0,meteohub,2013-07-15 09:32:00,
2013-07-15 05:37:00,73.0,71.8,30.04,ENE,67,3.0,10.0,96,0.00,,,0.03,0.0,meteohub,2013-07-15 09:37:00,
2013-07-15 05:41:00,73.0,71.8,30.04,ENE,78,3.0,10.0,96,0.00,,,0.03,0.0,meteohub,2013-07-15 09:41:00,
2013-07-15 05:47:00,73.2,72.0,30.04,SE,140,1.0,9.0,96,0.00,,,0.03,0.0,meteohub,2013-07-15 09:47:00,
2013-07-15 05:52:00,73.2,72.0,30.03,SE,140,0.0,5.0,96,0.00,,,0.03,0.0,meteohub,2013-07-15 09:52:00,
2013-07-15 05:57:00,73.4,72.1,30.03,SE,140,0.0,4.0,96,0.00,,,0.03,0.0,meteohub,2013-07-15 09:57:00,
2013-07-15 06:02:00,73.2,72.0,30.03,SE,140,0.0,3.0,96,0.00,,,0.03,0.0,meteohub,2013-07-15 10:02:00,
2013-07-15 06:07:00,73.2,72.0,30.03,SE,140,0.0,1.0,96,0.00,,,0.03,0.0,meteohub,2013-07-15 10:07:00,
2013-07-15 06:12:00,73.2,72.0,30.04,SE,140,0.0,1.0,96,0.00,,,0.03,0.0,meteohub,2013-07-15 10:12:00,
2013-07-15 06:17:00,73.2,72.0,30.04,SE,140,0.0,1.0,96,0.00,,,0.03,0.0,meteohub,2013-07-15 10:17:00,
2013-07-15 06:22:00,73.2,72.0,30.04,SE,140,0.0,1.0,96,0.00,,,0.03,0.0,meteohub,2013-07-15 10:22:00,
2013-07-15 06:27:00,73.2,72.0,30.04,SE,140,0.0,0.0,96,0.00,,,0.03,0.0,meteohub,2013-07-15 10:27:00,
2013-07-15 06:32:00,73.4,72.1,30.04,SE,140,0.0,0.0,96,0.00,,,0.03,0.0,meteohub,2013-07-15 10:32:00,
2013-07-15 06:37:00,73.0,71.8,30.04,SE,140,0.0,0.0,96,0.00,,,0.03,0.0,meteohub,2013-07-15 10:37:00,
2013-07-15 06:42:00,73.2,72.0,30.04,SE,140,0.0,0.0,96,0.00,,,0.03,5.0,meteohub,2013-07-15 10:42:00,
2013-07-15 06:47:00,73.2,72.0,30.05,ESE,118,1.0,2.0,96,0.00,,,0.03,11.0,meteohub,2013-07-15 10:47:00,
2013-07-15 06:52:00,73.4,72.1,30.05,East,96,9.0,9.0,96,0.00,,,0.03,30.0,meteohub,2013-07-15 10:52:00,
2013-07-15 06:57:00,72.9,71.4,30.05,East,93,0.0,14.0,95,0.02,,,0.05,58.0,meteohub,2013-07-15 10:57:00,
2013-07-15 07:02:00,73.0,71.6,30.05,East,100,0.0,14.0,95,0.03,,,0.06,74.0,meteohub,2013-07-15 11:02:00,
2013-07-15 07:07:00,73.8,72.3,30.05,East,100,0.0,14.0,95,0.06,,,0.09,81.0,meteohub,2013-07-15 11:07:00,
2013-07-15 07:12:00,73.9,72.5,30.05,East,100,0.0,7.0,95,0.07,,,0.10,88.0,meteohub,2013-07-15 11:12:00,
2013-07-15 07:17:00,74.3,72.9,30.06,East,100,2.0,2.0,95,0.10,,,0.13,104.0,meteohub,2013-07-15 11:17:00,
2013-07-15 07:22:00,74.8,73.2,30.06,East,100,0.0,3.0,95,0.12,,,0.15,118.0,meteohub,2013-07-15 11:22:00,
2013-07-15 07:27:00,75.0,73.4,30.06,South,172,0.0,3.0,95,0.13,,,0.16,123.0,meteohub,2013-07-15 11:27:00,
2013-07-15 07:32:00,75.9,74.3,30.06,South,173,1.0,3.0,95,0.15,,,0.18,121.0,meteohub,2013-07-15 11:32:00,
2013-07-15 07:37:00,76.6,74.5,30.06,South,173,0.0,2.0,93,0.15,,,0.18,128.0,meteohub,2013-07-15 11:37:00,
2013-07-15 07:42:00,77.5,74.7,30.06,South,178,1.0,2.0,91,0.15,,,0.18,151.0,meteohub,2013-07-15 11:42:00,
2013-07-15 07:47:00,78.4,74.8,30.06,South,180,1.0,2.0,89,0.15,,,0.18,176.0,meteohub,2013-07-15 11:47:00,
2013-07-15 07:52:00,78.6,74.5,30.07,NW,317,3.0,3.0,87,0.15,,,0.18,209.0,meteohub,2013-07-15 11:52:00,
2013-07-15 07:57:00,79.0,74.8,30.07,North,351,2.0,3.0,87,0.13,,,0.18,237.0,meteohub,2013-07-15 11:57:00,
2013-07-15 08:02:00,79.3,75.2,30.07,NNE,15,1.0,4.0,87,0.11,,,0.18,244.0,meteohub,2013-07-15 12:02:00,
2013-07-15 08:07:00,79.5,75.4,30.07,NNE,15,3.0,4.0,87,0.08,,,0.18,255.0,meteohub,2013-07-15 12:07:00,
2013-07-15 08:12:00,80.4,75.6,30.08,NE,38,2.0,4.0,85,0.06,,,0.18,269.0,meteohub,2013-07-15 12:12:00,
2013-07-15 08:17:00,80.1,75.6,30.08,ENE,59,1.0,4.0,86,0.04,,,0.18,262.0,meteohub,2013-07-15 12:17:00,
2013-07-15 08:22:00,80.8,75.9,30.07,ENE,58,3.0,4.0,85,0.03,,,0.18,269.0,meteohub,2013-07-15 12:22:00,
2013-07-15 08:27:00,80.8,75.6,30.07,ENE,58,4.0,4.0,84,0.01,,,0.18,276.0,meteohub,2013-07-15 12:27:00,
2013-07-15 08:32:00,81.0,75.7,30.07,NE,37,3.0,5.0,84,0.00,,,0.18,283.0,meteohub,2013-07-15 12:32:00,
2013-07-15 08:37:00,81.3,76.1,30.08,NE,41,3.0,5.0,84,0.00,,,0.18,299.0,meteohub,2013-07-15 12:37:00,
2013-07-15 08:42:00,81.3,75.7,30.08,NE,41,3.0,5.0,83,0.00,,,0.18,316.0,meteohub,2013-07-15 12:42:00,
2013-07-15 08:47:00,81.5,75.9,30.07,NE,44,2.0,5.0,83,0.00,,,0.18,330.0,meteohub,2013-07-15 12:47:00,
2013-07-15 08:52:00,81.9,76.5,30.08,NE,51,0.0,5.0,84,0.00,,,0.18,348.0,meteohub,2013-07-15 12:52:00,
2013-07-15 08:57:00,83.1,77.0,30.07,NE,47,1.0,5.0,82,0.00,,,0.18,362.0,meteohub,2013-07-15 12:57:00,
2013-07-15 09:02:00,83.8,77.0,30.07,NE,46,1.0,5.0,80,0.00,,,0.18,374.0,meteohub,2013-07-15 13:02:00,
2013-07-15 09:07:00,83.3,76.5,30.07,NE,46,3.0,3.0,80,0.00,,,0.18,392.0,meteohub,2013-07-15 13:07:00,
2013-07-15 09:12:00,84.0,77.2,30.07,NE,41,1.0,4.0,80,0.00,,,0.18,408.0,meteohub,2013-07-15 13:12:00,
2013-07-15 09:17:00,83.5,75.9,30.07,ENE,58,2.0,4.0,78,0.00,,,0.18,404.0,meteohub,2013-07-15 13:17:00,
2013-07-15 09:22:00,83.7,76.1,30.07,NE,39,3.0,7.0,78,0.00,,,0.18,438.0,meteohub,2013-07-15 13:22:00,
2013-07-15 09:27:00,83.5,75.9,30.07,NNE,31,5.0,7.0,78,0.00,,,0.18,455.0,meteohub,2013-07-15 13:27:00,
2013-07-15 09:32:00,83.8,76.6,30.07,NE,34,1.0,7.0,79,0.00,,,0.18,464.0,meteohub,2013-07-15 13:32:00,
2013-07-15 09:37:00,83.8,75.9,30.07,NE,51,1.0,6.0,77,0.00,,,0.18,483.0,meteohub,2013-07-15 13:37:00,
2013-07-15 09:42:00,83.5,76.3,30.07,East,84,2.0,6.0,79,0.00,,,0.18,515.0,meteohub,2013-07-15 13:42:00,
2013-07-15 09:47:00,84.4,76.5,30.07,ENE,63,4.0,6.0,77,0.00,,,0.18,555.0,meteohub,2013-07-15 13:47:00,
2013-07-15 09:52:00,84.2,75.7,30.07,East,80,1.0,7.0,76,0.00,,,0.18,403.0,meteohub,2013-07-15 13:52:00,
2013-07-15 09:57:00,84.4,75.9,30.08,East,101,2.0,7.0,76,0.00,,,0.18,652.0,meteohub,2013-07-15 13:57:00,
2013-07-15 10:02:00,84.0,75.2,30.08,ENE,72,3.0,8.0,75,0.00,,,0.18,626.0,meteohub,2013-07-15 14:02:00,
2013-07-15 10:07:00,84.0,75.6,30.08,East,95,2.0,8.0,76,0.00,,,0.18,647.0,meteohub,2013-07-15 14:07:00,
2013-07-15 10:12:00,84.4,74.8,30.08,ENE,73,3.0,8.0,73,0.00,,,0.18,403.0,meteohub,2013-07-15 14:12:00,
2013-07-15 10:17:00,84.9,75.2,30.08,NE,42,5.0,9.0,73,0.00,,,0.18,733.0,meteohub,2013-07-15 14:17:00,
2013-07-15 10:22:00,85.8,75.4,30.08,ENE,71,10.0,10.0,71,0.00,,,0.18,701.0,meteohub,2013-07-15 14:22:00,
2013-07-15 10:27:00,85.1,74.7,30.08,NE,51,6.0,10.0,71,0.00,,,0.18,183.0,meteohub,2013-07-15 14:27:00,
2013-07-15 10:32:00,85.1,74.1,30.08,East,88,3.0,10.0,70,0.00,,,0.18,679.0,meteohub,2013-07-15 14:32:00,
2013-07-15 10:37:00,85.5,74.5,30.08,ENE,78,4.0,10.0,70,0.00,,,0.18,714.0,meteohub,2013-07-15 14:37:00,
2013-07-15 10:42:00,85.1,74.7,30.08,East,85,2.0,9.0,71,0.00,,,0.18,183.0,meteohub,2013-07-15 14:42:00,
2013-07-15 10:47:00,84.4,74.8,30.08,ENE,75,4.0,9.0,73,0.00,,,0.18,220.0,meteohub,2013-07-15 14:47:00,
2013-07-15 10:52:00,83.8,74.7,30.08,ENE,78,3.0,9.0,74,0.00,,,0.18,211.0,meteohub,2013-07-15 14:52:00,
2013-07-15 10:59:00,84.0,74.5,30.08,ENE,57,3.0,9.0,73,0.00,,,0.18,163.0,meteohub,2013-07-15 14:59:00,
2013-07-15 11:04:00,84.0,74.8,30.08,ESE,113,5.0,7.0,74,0.00,,,0.18,812.0,meteohub,2013-07-15 15:04:00,
2013-07-15 11:12:00,84.9,74.5,30.08,ESE,103,7.0,8.0,71,0.00,,,0.18,816.0,meteohub,2013-07-15 15:12:00,
2013-07-15 11:17:00,85.6,75.2,30.08,East,99,5.0,11.0,71,0.00,,,0.18,795.0,meteohub,2013-07-15 15:17:00,
2013-07-15 11:22:00,85.8,74.8,30.08,East,96,2.0,11.0,70,0.00,,,0.18,810.0,meteohub,2013-07-15 15:22:00,
2013-07-15 11:27:00,86.2,75.7,30.08,ENE,67,10.0,10.0,71,0.00,,,0.18,686.0,meteohub,2013-07-15 15:27:00,
2013-07-15 11:32:00,86.0,75.0,30.08,NE,50,4.0,10.0,70,0.00,,,0.18,621.0,meteohub,2013-07-15 15:32:00,
2013-07-15 11:37:00,86.4,75.4,30.08,NE,54,8.0,10.0,70,0.00,,,0.18,731.0,meteohub,2013-07-15 15:37:00,
2013-07-15 11:42:00,86.5,74.7,30.08,ENE,60,2.0,11.0,68,0.00,,,0.18,789.0,meteohub,2013-07-15 15:42:00,
2013-07-15 11:47:00,86.5,75.2,30.08,East,80,6.0,11.0,69,0.00,,,0.18,872.0,meteohub,2013-07-15 15:47:00,
2013-07-15 11:52:00,87.3,75.0,30.08,ENE,72,5.0,11.0,67,0.00,,,0.18,784.0,meteohub,2013-07-15 15:52:00,
2013-07-15 11:57:00,86.2,74.3,30.08,ESE,107,7.0,11.0,68,0.00,,,0.18,882.0,meteohub,2013-07-15 15:57:00,
2013-07-15 12:02:00,85.8,72.7,30.08,ESE,111,7.0,11.0,65,0.00,,,0.18,374.0,meteohub,2013-07-15 16:02:00,
2013-07-15 12:07:00,86.4,74.1,30.08,ESE,111,5.0,10.0,67,0.00,,,0.18,914.0,meteohub,2013-07-15 16:07:00,
2013-07-15 12:12:00,87.1,74.8,30.08,East,94,10.0,10.0,67,0.00,,,0.18,960.0,meteohub,2013-07-15 16:12:00,
2013-07-15 12:19:00,86.5,74.7,30.08,ENE,65,5.0,10.0,68,0.00,,,0.18,805.0,meteohub,2013-07-15 16:19:00,
2013-07-15 12:24:00,86.5,74.7,30.08,East,82,7.0,10.0,68,0.00,,,0.18,805.0,meteohub,2013-07-15 16:24:00,
2013-07-15 12:32:00,86.0,74.1,30.07,ESE,109,4.0,12.0,68,0.00,,,0.18,946.0,meteohub,2013-07-15 16:32:00,
2013-07-15 12:37:00,86.4,74.1,30.07,East,96,6.0,12.0,67,0.00,,,0.18,932.0,meteohub,2013-07-15 16:37:00,
2013-07-15 12:42:00,86.5,74.7,30.07,ESE,115,4.0,12.0,68,0.00,,,0.18,958.0,meteohub,2013-07-15 16:42:00,
2013-07-15 12:47:00,86.0,75.0,30.07,East,96,5.0,12.0,70,0.00,,,0.18,1014.0,meteohub,2013-07-15 16:47:00,
2013-07-15 12:52:00,86.9,75.9,30.07,East,96,9.0,12.0,70,0.00,,,0.18,417.0,meteohub,2013-07-15 16:52:00,
2013-07-15 13:02:00,87.3,74.1,30.07,SE,128,7.0,14.0,65,0.00,,,0.18,986.0,meteohub,2013-07-15 17:02:00,
2013-07-15 13:07:00,86.4,74.5,30.07,ESE,107,11.0,14.0,68,0.00,,,0.18,868.0,meteohub,2013-07-15 17:07:00,
2013-07-15 13:12:00,86.0,74.7,30.07,East,87,10.0,14.0,69,0.00,,,0.18,496.0,meteohub,2013-07-15 17:12:00,
2013-07-15 13:18:00,86.4,75.0,30.07,ESE,107,9.0,14.0,69,0.00,,,0.18,840.0,meteohub,2013-07-15 17:18:00,
2013-07-15 13:23:00,86.9,74.7,30.07,East,95,9.0,13.0,67,0.00,,,0.18,751.0,meteohub,2013-07-15 17:23:00,
2013-07-15 13:32:00,86.7,73.9,30.07,East,95,7.0,14.0,66,0.00,,,0.18,606.0,meteohub,2013-07-15 17:32:00,
2013-07-15 13:37:00,86.2,73.4,30.06,ESE,103,8.0,14.0,66,0.00,,,0.18,485.0,meteohub,2013-07-15 17:37:00,
2013-07-15 13:42:00,85.5,73.2,30.06,ESE,103,9.0,15.0,67,0.00,,,0.18,457.0,meteohub,2013-07-15 17:42:00,
2013-07-15 13:47:00,84.9,72.3,30.06,East,92,9.0,15.0,66,0.00,,,0.18,452.0,meteohub,2013-07-15 17:47:00,
2013-07-15 13:52:00,84.7,73.0,30.06,ESE,108,4.0,15.0,68,0.00,,,0.18,422.0,meteohub,2013-07-15 17:52:00,
2013-07-15 13:57:00,84.9,74.1,30.06,East,85,3.0,15.0,70,0.00,,,0.18,366.0,meteohub,2013-07-15 17:57:00,
2013-07-15 14:02:00,84.7,72.5,30.06,ESE,102,3.0,14.0,67,0.00,,,0.18,318.0,meteohub,2013-07-15 18:02:00,
2013-07-15 14:07:00,84.6,72.9,30.06,ESE,111,8.0,14.0,68,0.00,,,0.18,334.0,meteohub,2013-07-15 18:07:00,
2013-07-15 14:14:00,84.4,73.6,30.05,ESE,105,4.0,11.0,70,0.00,,,0.18,417.0,meteohub,2013-07-15 18:14:00,
2013-07-15 14:24:00,85.5,73.8,30.05,ENE,71,8.0,11.0,68,0.00,,,0.18,742.0,meteohub,2013-07-15 18:24:00,
2013-07-15 14:31:00,86.2,73.4,30.05,ENE,57,5.0,11.0,66,0.00,,,0.18,965.0,meteohub,2013-07-15 18:31:00,
2013-07-15 14:37:00,87.1,73.4,30.04,ENE,59,3.0,10.0,64,0.00,,,0.18,898.0,meteohub,2013-07-15 18:37:00,
2013-07-15 14:42:00,86.5,73.4,30.04,East,82,5.0,10.0,65,0.00,,,0.18,930.0,meteohub,2013-07-15 18:42:00,
2013-07-15 14:47:00,86.7,73.0,30.04,ESE,115,1.0,9.0,64,0.00,,,0.18,953.0,meteohub,2013-07-15 18:47:00,
2013-07-15 14:54:00,86.7,72.7,30.04,ESE,115,0.0,9.0,63,0.00,,,0.18,940.0,meteohub,2013-07-15 18:54:00,
2013-07-15 14:59:00,87.6,72.5,30.03,ENE,60,4.0,10.0,61,0.00,,,0.18,940.0,meteohub,2013-07-15 18:59:00,
2013-07-15 15:04:00,87.8,72.7,30.03,East,98,7.0,10.0,61,0.00,,,0.18,951.0,meteohub,2013-07-15 19:04:00,
2013-07-15 15:09:00,86.5,73.4,30.03,NE,49,1.0,11.0,65,0.00,,,0.18,207.0,meteohub,2013-07-15 19:09:00,
2013-07-15 15:14:00,87.3,72.7,30.03,East,94,5.0,11.0,62,0.00,,,0.18,385.0,meteohub,2013-07-15 19:14:00,
2013-07-15 15:21:00,87.1,72.5,30.03,ENE,78,5.0,11.0,62,0.00,,,0.18,863.0,meteohub,2013-07-15 19:21:00,
2013-07-15 15:26:00,87.4,73.2,30.03,East,86,8.0,10.0,63,0.00,,,0.18,867.0,meteohub,2013-07-15 19:26:00,
2013-07-15 15:34:00,87.1,72.5,30.03,East,82,7.0,11.0,62,0.00,,,0.18,912.0,meteohub,2013-07-15 19:34:00,
2013-07-15 15:40:00,86.9,73.8,30.03,East,99,7.0,13.0,65,0.00,,,0.18,369.0,meteohub,2013-07-15 19:40:00,
2013-07-15 15:46:00,87.1,74.3,30.03,ENE,60,12.0,14.0,66,0.00,,,0.18,362.0,meteohub,2013-07-15 19:46:00,
2013-07-15 15:51:00,86.7,73.9,30.03,East,90,8.0,14.0,66,0.00,,,0.18,336.0,meteohub,2013-07-15 19:51:00,
2013-07-15 15:57:00,87.1,74.8,30.03,East,84,10.0,16.0,67,0.00,,,0.18,930.0,meteohub,2013-07-15 19:57:00,
2013-07-15 16:03:00,87.1,74.8,30.03,East,83,10.0,16.0,67,0.00,,,0.18,896.0,meteohub,2013-07-15 20:03:00,
2013-07-15 16:08:00,85.8,73.2,30.03,East,85,7.0,17.0,66,0.00,,,0.18,260.0,meteohub,2013-07-15 20:08:00,
2013-07-15 16:17:00,86.4,73.2,30.03,ENE,72,8.0,17.0,65,0.00,,,0.18,469.0,meteohub,2013-07-15 20:17:00,
2013-07-15 16:22:00,85.6,72.5,30.03,ESE,107,9.0,16.0,65,0.00,,,0.18,278.0,meteohub,2013-07-15 20:22:00,
2013-07-15 16:27:00,85.1,72.9,30.02,East,92,7.0,16.0,67,0.00,,,0.18,241.0,meteohub,2013-07-15 20:27:00,
2013-07-15 16:32:00,84.9,73.2,30.02,East,92,13.0,16.0,68,0.00,,,0.18,195.0,meteohub,2013-07-15 20:32:00,
2013-07-15 16:37:00,84.4,73.6,30.02,ENE,76,9.0,16.0,70,0.00,,,0.18,156.0,meteohub,2013-07-15 20:37:00,
2013-07-15 16:42:00,84.0,73.2,30.02,East,86,6.0,18.0,70,0.00,,,0.18,130.0,meteohub,2013-07-15 20:42:00,
2013-07-15 16:47:00,84.0,73.2,30.02,East,82,8.0,18.0,70,0.00,,,0.18,121.0,meteohub,2013-07-15 20:47:00,
2013-07-15 16:53:00,83.8,73.0,30.03,East,87,7.0,18.0,70,0.00,,,0.18,91.0,meteohub,2013-07-15 20:53:00,
2013-07-15 16:59:00,83.5,73.0,30.03,East,94,6.0,15.0,71,0.00,,,0.18,93.0,meteohub,2013-07-15 20:59:00,
2013-07-15 17:07:00,83.1,73.2,30.03,East,84,9.0,15.0,72,0.00,,,0.18,72.0,meteohub,2013-07-15 21:07:00,
2013-07-15 17:12:00,83.1,73.6,30.03,East,86,3.0,15.0,73,0.00,,,0.18,90.0,meteohub,2013-07-15 21:12:00,
2013-07-15 17:17:00,83.1,73.9,30.03,ESE,115,4.0,15.0,74,0.00,,,0.18,104.0,meteohub,2013-07-15 21:17:00,
2013-07-15 17:22:00,82.9,74.1,30.02,East,92,5.0,12.0,75,0.00,,,0.18,116.0,meteohub,2013-07-15 21:22:00,
2013-07-15 17:27:00,82.9,74.1,30.02,East,92,3.0,12.0,75,0.00,,,0.18,79.0,meteohub,2013-07-15 21:27:00,
2013-07-15 17:34:00,82.8,73.6,30.02,East,99,7.0,12.0,74,0.00,,,0.18,105.0,meteohub,2013-07-15 21:34:00,
2013-07-15 17:40:00,82.6,73.8,30.02,East,99,5.0,10.0,75,0.00,,,0.18,97.0,meteohub,2013-07-15 21:40:00,
2013-07-15 17:47:00,82.2,73.0,30.02,East,92,7.0,10.0,74,0.00,,,0.18,91.0,meteohub,2013-07-15 21:47:00,
2013-07-15 17:52:00,82.2,73.0,30.02,East,92,2.0,10.0,74,0.00,,,0.18,84.0,meteohub,2013-07-15 21:52:00,
2013-07-15 18:00:00,82.2,73.0,30.02,East,81,2.0,10.0,74,0.00,,,0.18,72.0,meteohub,2013-07-15 22:00:00,
2013-07-15 18:05:00,82.2,73.0,30.03,East,92,5.0,8.0,74,0.00,,,0.18,84.0,meteohub,2013-07-15 22:05:00,
2013-07-15 18:12:00,82.2,73.0,30.03,ENE,61,4.0,7.0,74,0.00,,,0.18,84.0,meteohub,2013-07-15 22:12:00,
2013-07-15 18:17:00,82.2,73.0,30.03,ENE,61,4.0,7.0,74,0.00,,,0.18,86.0,meteohub,2013-07-15 22:17:00,
2013-07-15 18:22:00,82.2,73.0,30.03,East,88,6.0,7.0,74,0.00,,,0.18,79.0,meteohub,2013-07-15 22:22:00,
2013-07-15 18:27:00,82.2,73.0,30.03,East,84,2.0,7.0,74,0.00,,,0.18,90.0,meteohub,2013-07-15 22:27:00,
2013-07-15 18:33:00,82.2,72.7,30.03,ENE,57,7.0,7.0,73,0.00,,,0.18,93.0,meteohub,2013-07-15 22:33:00,
2013-07-15 18:38:00,82.2,73.0,30.03,East,88,5.0,9.0,74,0.00,,,0.18,90.0,meteohub,2013-07-15 22:38:00,
2013-07-15 18:43:00,82.0,73.4,30.04,East,86,1.0,9.0,75,0.00,,,0.18,79.0,meteohub,2013-07-15 22:43:00,
2013-07-15 18:49:00,82.0,73.4,30.03,East,91,7.0,8.0,75,0.00,,,0.18,76.0,meteohub,2013-07-15 22:49:00,
2013-07-15 18:54:00,81.9,73.6,30.04,ENE,64,9.0,10.0,76,0.00,,,0.18,67.0,meteohub,2013-07-15 22:54:00,
2013-07-15 18:59:00,81.9,73.6,30.03,NE,49,3.0,11.0,76,0.00,,,0.18,65.0,meteohub,2013-07-15 22:59:00,
2013-07-15 19:04:00,81.9,73.9,30.03,East,95,6.0,11.0,77,0.00,,,0.18,49.0,meteohub,2013-07-15 23:04:00,
2013-07-15 19:10:00,81.7,73.8,30.03,ENE,61,3.0,11.0,77,0.00,,,0.18,60.0,meteohub,2013-07-15 23:10:00,
2013-07-15 19:17:00,81.7,74.1,30.03,East,87,2.0,11.0,78,0.00,,,0.18,49.0,meteohub,2013-07-15 23:17:00,
2013-07-15 19:22:00,81.5,74.3,30.03,ESE,103,9.0,11.0,79,0.00,,,0.18,40.0,meteohub,2013-07-15 23:22:00,
2013-07-15 19:27:00,80.8,73.9,30.03,ESE,105,8.0,13.0,80,0.00,,,0.18,33.0,meteohub,2013-07-15 23:27:00,
2013-07-15 19:32:00,80.4,74.1,30.03,East,96,3.0,13.0,81,0.00,,,0.18,33.0,meteohub,2013-07-15 23:32:00,
2013-07-15 19:37:00,80.4,74.1,30.03,East,83,9.0,13.0,81,0.00,,,0.18,30.0,meteohub,2013-07-15 23:37:00,
2013-07-15 19:42:00,80.4,74.1,30.03,East,93,5.0,10.0,81,0.00,,,0.18,26.0,meteohub,2013-07-15 23:42:00,
2013-07-15 19:47:00,80.6,74.7,30.03,East,99,2.0,11.0,82,0.00,,,0.18,23.0,meteohub,2013-07-15 23:47:00,
2013-07-15 19:52:00,80.6,74.7,30.03,ESE,122,4.0,11.0,82,0.00,,,0.18,16.0,meteohub,2013-07-15 23:52:00,
2013-07-15 19:58:00,80.6,74.3,30.03,East,98,10.0,11.0,81,0.00,,,0.18,14.0,meteohub,2013-07-15 23:58:00,
2013-07-15 20:04:00,80.6,74.3,30.04,ESE,109,3.0,13.0,81,0.00,,,0.18,9.0,meteohub,2013-07-16 00:04:00,
2013-07-15 20:11:00,80.6,73.9,30.04,East,88,6.0,13.0,80,0.00,,,0.18,5.0,meteohub,2013-07-16 00:11:00,
2013-07-15 20:16:00,80.6,73.4,30.04,ENE,66,5.0,11.0,79,0.00,,,0.18,0.0,meteohub,2013-07-16 00:16:00,
2013-07-15 20:21:00,80.8,73.2,30.05,East,96,3.0,11.0,78,0.00,,,0.18,0.0,meteohub,2013-07-16 00:21:00,
2013-07-15 20:27:00,80.8,73.2,30.05,East,92,3.0,11.0,78,0.00,,,0.18,0.0,meteohub,2013-07-16 00:27:00,
2013-07-15 20:32:00,80.8,73.2,30.05,ESE,109,5.0,10.0,78,0.00,,,0.18,0.0,meteohub,2013-07-16 00:32:00,
2013-07-15 20:40:00,80.6,73.0,30.05,East,89,3.0,10.0,78,0.00,,,0.18,0.0,meteohub,2013-07-16 00:40:00,
2013-07-15 20:45:00,80.8,73.2,30.06,East,80,5.0,10.0,78,0.00,,,0.18,0.0,meteohub,2013-07-16 00:45:00,
2013-07-15 20:51:00,80.8,73.2,30.05,ENE,71,2.0,9.0,78,0.00,,,0.18,0.0,meteohub,2013-07-16 00:51:00,
2013-07-15 20:57:00,80.6,73.0,30.05,East,93,6.0,11.0,78,0.00,,,0.18,0.0,meteohub,2013-07-16 00:57:00,
2013-07-15 21:02:00,80.6,73.0,30.05,East,94,6.0,11.0,78,0.00,,,0.18,0.0,meteohub,2013-07-16 01:02:00,
2013-07-15 21:07:00,80.6,72.7,30.05,ESE,109,1.0,10.0,77,0.00,,,0.18,0.0,meteohub,2013-07-16 01:07:00,
2013-07-15 21:12:00,80.6,72.7,30.05,East,93,5.0,10.0,77,0.00,,,0.18,0.0,meteohub,2013-07-16 01:12:00,
2013-07-15 21:17:00,80.6,72.7,30.05,East,97,5.0,10.0,77,0.00,,,0.18,0.0,meteohub,2013-07-16 01:17:00,
2013-07-15 21:22:00,80.6,72.3,30.05,East,94,6.0,10.0,76,0.00,,,0.18,0.0,meteohub,2013-07-16 01:22:00,
2013-07-15 21:27:00,80.6,72.3,30.06,East,94,7.0,10.0,76,0.00,,,0.18,0.0,meteohub,2013-07-16 01:27:00,
2013-07-15 21:32:00,80.6,72.3,30.06,ESE,103,4.0,10.0,76,0.00,,,0.18,0.0,meteohub,2013-07-16 01:32:00,
2013-07-15 21:39:00,80.6,72.0,30.06,East,92,6.0,10.0,75,0.00,,,0.18,0.0,meteohub,2013-07-16 01:39:00,
2013-07-15 21:46:00,80.6,72.0,30.06,East,92,2.0,11.0,75,0.00,,,0.18,0.0,meteohub,2013-07-16 01:46:00,
2013-07-15 21:52:00,80.6,72.7,30.07,ESE,103,5.0,11.0,77,0.00,,,0.18,0.0,meteohub,2013-07-16 01:52:00,
2013-07-15 21:57:00,80.6,73.0,30.07,East,92,8.0,11.0,78,0.00,,,0.18,0.0,meteohub,2013-07-16 01:57:00,
2013-07-15 22:02:00,80.8,73.2,30.07,East,96,5.0,11.0,78,0.00,,,0.18,0.0,meteohub,2013-07-16 02:02:00,
2013-07-15 22:07:00,80.8,73.2,30.07,East,92,8.0,11.0,78,0.00,,,0.18,0.0,meteohub,2013-07-16 02:07:00,
2013-07-15 22:12:00,80.8,73.6,30.08,East,89,6.0,13.0,79,0.00,,,0.18,0.0,meteohub,2013-07-16 02:12:00,
2013-07-15 22:17:00,80.8,73.6,30.08,East,94,7.0,13.0,79,0.00,,,0.18,0.0,meteohub,2013-07-16 02:17:00,
2013-07-15 22:23:00,80.8,73.6,30.08,East,98,3.0,13.0,79,0.00,,,0.18,0.0,meteohub,2013-07-16 02:23:00,
2013-07-15 22:30:00,80.8,73.6,30.08,ESE,105,10.0,12.0,79,0.00,,,0.18,0.0,meteohub,2013-07-16 02:30:00,
2013-07-15 22:35:00,80.8,73.9,30.09,ESE,106,10.0,14.0,80,0.00,,,0.18,0.0,meteohub,2013-07-16 02:35:00,
2013-07-15 22:41:00,80.8,73.9,30.09,East,98,6.0,14.0,80,0.00,,,0.18,0.0,meteohub,2013-07-16 02:41:00,
2013-07-15 22:47:00,80.4,74.1,30.09,ESE,108,11.0,13.0,81,0.00,,,0.18,0.0,meteohub,2013-07-16 02:47:00,
2013-07-15 22:52:00,80.4,74.1,30.09,ESE,104,12.0,13.0,81,0.00,,,0.18,0.0,meteohub,2013-07-16 02:52:00,
2013-07-15 22:59:00,80.6,73.9,30.09,East,101,10.0,17.0,80,0.00,,,0.18,0.0,meteohub,2013-07-16 02:59:00,
2013-07-15 23:04:00,80.6,73.9,30.09,ESE,103,8.0,17.0,80,0.00,,,0.18,0.0,meteohub,2013-07-16 03:04:00,
2013-07-15 23:10:00,80.6,73.9,30.09,SE,124,4.0,13.0,80,0.00,,,0.18,0.0,meteohub,2013-07-16 03:10:00,
2013-07-15 23:17:00,80.6,73.9,30.09,ESE,106,5.0,11.0,80,0.00,,,0.18,0.0,meteohub,2013-07-16 03:17:00,
2013-07-15 23:22:00,80.6,73.9,30.09,ESE,102,9.0,11.0,80,0.00,,,0.18,0.0,meteohub,2013-07-16 03:22:00,
2013-07-15 23:27:00,80.6,73.9,30.09,ESE,104,4.0,11.0,80,0.00,,,0.18,0.0,meteohub,2013-07-16 03:27:00,
2013-07-15 23:36:00,80.6,73.9,30.09,East,95,6.0,11.0,80,0.00,,,0.18,0.0,meteohub,2013-07-16 03:36:00,
2013-07-15 23:42:00,80.4,73.2,30.09,East,100,7.0,10.0,79,0.00,,,0.18,0.0,meteohub,2013-07-16 03:42:00,
2013-07-15 23:47:00,80.4,73.2,30.09,ESE,111,7.0,9.0,79,0.00,,,0.18,0.0,meteohub,2013-07-16 03:47:00,
2013-07-15 23:52:00,80.6,73.4,30.09,ENE,76,4.0,9.0,79,0.00,,,0.18,0.0,meteohub,2013-07-16 03:52:00,
2013-07-15 23:57:00,80.6,73.4,30.09,ESE,104,5.0,9.0,79,0.00,,,0.18,0.0,meteohub,2013-07-16 03:57:00,